Lid_Strength_Index
2 2 5 6 10 11 13 13 8 9 8 6 5 7 8 7 8 11 2 1 0 0 0 -0 -1 -1 -1 -1 -1 -1 -1 -1 -1 -1 -1 -1 -1 -1 -1 -1 -1 -1 -1 -1 -1 -1 -1 -1 -1
6 5 8 11 12 15 14 10 10 9 6 5 6 6 7 8 5 4 3 1 -0 0 1 0 -1 -1 -1 -1 -1 -1 -1 -1 -1 -1 -1 -1 -1 -1 -1 -1 -1 -1 -1 -1 -1 -1 -1 -1 -1
5 8 12 14 12 14 13 10 10 7 6 5 6 5 6 7 4 4 1 0 -0 0 1 -0 -1 -1 -1 -1 -1 -1 -1 -1 -1 -1 -1 -1 -1 -1 -1 -1 -1 -1 -1 -1 -1 -1 -1 -1 -1
9 9 12 15 15 10 9 8 6 7 6 5 5 7 4 2 3 2 0 -0 0 0 0 -1 -1 -1 -1 -1 -1 -1 -1 -1 -1 -1 -1 -1 -1 -1 -1 -1 -1 -1 -1 -1 -1 -1 -1 -1 -1
10 13 15 15 16 10 8 7 7 7 8 7 6 7 7 3 1 1 1 0 1 0 0 0 -1 -1 -1 -1 -1 -1 -1 -1 -1 -1 -1 -1 -1 -1 -1 -1 -1 -1 -1 -1 -1 -1 -2 -2 -2
13 13 15 14 12 9 8 7 6 7 7 6 6 7 6 2 2 1 1 1 -0 0 0 0 -1 -1 -1 -1 -1 -1 -1 -1 -1 -1 -1 -1 -1 -1 -1 -1 -1 -1 -1 -1 -1 -2 -2 -2 -2
13 14 16 13 12 10 9 6 7 7 8 7 6 8 6 4 2 1 1 0 0 0 0 0 0 -0 -1 -1 -1 -1 -1 -1 -1 -1 -1 -1 -1 -1 -1 -1 -1 -1 -2 -1 -1 -2 -2 -2 -2
12 13 15 12 12 12 8 7 6 7 7 4 4 8 8 4 1 2 1 1 1 0 0 0 1 0 0 0 -1 -1 -1 -1 -1 -1 -1 -2 -1 -2 -1 -2 -2 -2 -2 -2 -2 -2 -2 -2 -2
11 14 16 12 11 10 7 8 6 4 5 5 4 4 4 2 2 2 2 2 3 1 1 1 0 1 0 0 -0 -1 -1 -1 -1 -1 -1 -1 -0 -0 -1 -1 -2 -2 -2 -2 -2 -2 -1 -1 -1
12 14 13 8 8 8 7 7 6 6 7 6 5 3 2 2 3 3 3 3 3 2 1 0 0 0 1 -0 0 0 -0 0 -0 -0 -0 -0 -0 1 -1 -0 -1 -1 -1 -1 -2 -1 -1 -1 -0
12 12 9 7 7 6 7 7 5 7 8 6 6 5 4 3 3 3 3 3 3 3 2 0 0 0 0 0 0 0 0 0 -0 -0 0 1 1 2 3 2 1 1 -0 1 1 2 2 2 1
9 8 7 7 6 7 7 6 7 6 6 4 4 3 4 4 4 3 3 3 2 2 2 1 1 1 1 1 1 0 0 1 1 1 1 1 2 1 1 0 1 1 0 0 1 1 1 1 1
10 8 7 6 7 8 6 7 7 7 5 4 3 3 4 4 4 3 3 3 2 2 2 2 2 3 2 2 2 2 1 1 0 0 0 1 1 2 1 2 2 2 1 1 1 2 2 2 1
8 8 8 7 8 7 8 7 7 6 4 4 4 5 4 4 4 3 3 4 2 2 2 2 2 2 1 2 1 0 0 1 2 2 2 2 2 2 2 2 3 2 2 2 2 2 2 1 1
7 10 8 8 8 9 7 9 9 6 5 6 5 5 5 4 3 4 3 3 2 2 1 1 1 1 0 1 1 1 2 2 2 3 2 2 3 3 3 4 3 3 1 -0 -0 -0 0 0 -0
9 12 13 9 8 7 8 11 8 6 6 6 6 6 5 5 4 3 3 2 2 2 2 1 1 1 1 2 2 2 3 3 3 3 3 3 4 4 4 2 1 0 -0 0 0 0 1 1 1
15 15 15 11 8 8 9 11 7 6 6 7 6 6 5 5 4 3 2 2 2 2 2 2 2 2 3 3 3 4 4 4 4 4 4 3 2 1 1 1 1 0 1 1 1 1 1 1 1
14 14 14 12 9 9 11 11 8 7 6 7 7 6 6 5 5 3 3 3 3 3 3 2 2 2 3 3 4 5 5 5 4 5 4 1 0 0 2 2 2 1 1 1 1 1 1 1 1
12 13 13 11 9 10 10 10 9 7 7 8 7 7 6 6 4 3 3 3 4 5 5 3 3 3 3 4 5 5 6 5 6 2 1 1 1 2 3 3 2 2 3 3 2 1 2 2 1
12 13 13 11 9 9 10 11 9 8 8 7 7 7 6 6 5 4 4 5 4 6 6 5 5 4 3 3 4 5 5 4 2 3 2 2 2 2 3 3 3 3 3 3 3 3 3 3 2
12 13 13 11 9 10 10 12 11 8 7 7 6 6 6 6 6 5 5 5 5 5 6 6 5 4 4 4 5 6 5 3 3 3 3 3 2 2 2 3 3 4 4 4 4 3 4 5 4
13 10 10 10 11 14 13 17 15 10 9 8 7 7 6 6 5 5 5 6 5 5 5 6 6 6 6 5 4 5 4 4 4 4 4 4 3 2 1 2 3 3 4 4 4 3 4 4 5
11 10 10 10 13 14 15 15 14 13 11 9 8 7 6 5 5 6 6 6 5 5 5 5 5 5 5 6 5 5 5 4 3 5 4 4 3 2 1 2 2 3 4 4 4 4 4 4 5
8 10 12 13 14 16 15 15 15 13 10 8 7 7 6 5 6 6 6 6 6 6 6 5 6 6 5 5 5 5 5 4 4 5 5 4 4 3 2 2 3 3 3 3 4 5 4 5 5
11 13 16 16 17 16 14 15 13 11 9 9 7 7 6 5 6 6 7 7 7 6 6 6 6 6 4 5 6 4 4 4 4 4 4 4 4 5 4 3 3 3 3 3 3 4 4 4 5
13 13 16 18 18 16 13 15 12 8 9 7 8 6 6 6 6 6 7 7 6 6 6 6 6 4 4 4 4 4 4 4 4 4 4 4 4 5 4 3 2 2 2 3 3 4 3 4 5
12 14 13 15 16 16 15 12 9 8 8 8 8 7 7 6 7 7 7 6 6 6 6 6 4 3 4 4 3 4 4 4 4 4 4 5 5 2 3 2 3 3 3 4 4 5 4 4 6
11 11 14 15 18 18 16 15 13 11 10 9 9 8 7 7 7 8 7 6 6 6 5 4 3 3 3 3 4 3 4 4 4 4 4 4 3 4 4 3 4 3 4 4 4 5 4 4 4
11 13 14 14 15 17 18 15 11 10 9 9 8 7 7 6 7 7 7 7 6 5 5 4 3 4 4 3 4 3 3 3 4 3 3 5 5 5 4 4 4 4 4 4 5 5 5 5 6
10 12 13 15 16 16 16 16 10 8 9 8 8 7 6 6 6 7 7 7 6 5 5 4 4 4 4 4 4 4 4 3 3 4 5 6 6 4 4 4 4 4 4 5 6 6 5 6 5